Estherville, IA

5:47 AM CDT on May 28, 2018 (GMT -0500)
Estherville Municipal

Weather History for KEST - December, 2012

Change the Weather History Date:

Saturday, December 1, 2012

  Actual Average Record
Temperature  
Mean Temperature 42 °F 24 °F  
Max Temperature 54 °F 33 °F 68 °F (1998)
Min Temperature 29 °F 15 °F -4 °F (2005)
Degree Days  
Heating Degree Days 23 41  
Month to date heating degree days 23 41  
Since 1 July heating degree days 1629 1760  
Cooling Degree Days 0 0  
Month to date cooling degree days 0 0  
Year to date cooling degree days 886 593  
Moisture  
Dew Point 37 °F    
Average Humidity 89    
Maximum Humidity 100    
Minimum Humidity 77    
Precipitation  
Precipitation 0.00 in 0.05 in 0.60 in (1981)
Month to date precipitation 0.00 0.05  
Sea Level Pressure  
Sea Level Pressure 29.83 in    
Wind  
Wind Speed 11 mph (SSW)    
Max Wind Speed 21 mph    
Max Gust Speed 24 mph    
Visibility 3 miles    
Events Fog    
T = Trace of Precipitation, MM = Missing Value Source: NWS Daily Summary

Daily Weather History Graph

Daily Weather History Graph

Search for Another Location

Airport or City:

Astronomy

Dec. 01, 2012 Rise Set
Actual Time 7:32 AM CST 4:43 PM CST
Civil Twilight 7:00 AM CST 5:16 PM CST
Nautical Twilight 6:24 AM CST 5:51 PM CST
Astronomical Twilight 5:50 AM CST 6:26 PM CST
Moon 7:36 PM CST (12/1) 9:44 AM CST (12/1)
Length of Visible Light 10h 15m
Length of Day
9h 11m
Waning Gibbous, 91% of the Moon is Illuminated
Dec 1
Waning Gibbous
Dec 6
Last Quarter
Dec 13
New
Dec 19
First Quarter
Dec 28
Full

Hourly Weather History & Observations

Time (CST) Temp. Windchill Dew Point Humidity Pressure Visibility Wind Dir Wind Speed Gust Speed Precip Events Conditions
12:52 AM 30.9 °F 21.2 °F 28.9 °F 92% 30.00 in 2.0 mi SSE 12.7 mph - N/A   Partly Cloudy
1:12 AM 30.2 °F 20.2 °F 28.4 °F 93% 29.95 in 1.8 mi SSE 12.7 mph - N/A   Partly Cloudy
1:52 AM 28.9 °F 19.8 °F 28.0 °F 96% 29.99 in 1.8 mi SSE 10.4 mph - N/A   Partly Cloudy
2:52 AM 30.9 °F 21.7 °F 28.9 °F 92% 29.96 in 1.8 mi SSE 11.5 mph - N/A   Clear
3:00 AM 30.2 °F 20.8 °F 28.4 °F 93% 29.91 in 1.8 mi SSE 11.5 mph - N/A   Partly Cloudy
3:52 AM 30.0 °F 19.1 °F 28.9 °F 96% 29.92 in 1.8 mi SSE 15.0 mph - N/A   Clear
4:02 AM 30.2 °F 19.3 °F 28.4 °F 93% 29.88 in 2.0 mi SSE 15.0 mph - N/A   Clear
4:52 AM 30.9 °F 21.2 °F 28.9 °F 92% 29.90 in 2.0 mi SSE 12.7 mph - N/A   Clear
5:52 AM 32.0 °F 23.0 °F 30.9 °F 96% 29.89 in 2.5 mi South 11.5 mph - N/A   Partly Cloudy
6:05 AM 33.8 °F 24.8 °F 30.2 °F 87% 29.84 in 2.5 mi South 12.7 mph - N/A   Mostly Cloudy
6:25 AM 35.6 °F 27.5 °F 32.0 °F 87% 29.84 in 3.0 mi South 11.5 mph - N/A   Overcast
6:39 AM 35.6 °F 26.6 °F 32.0 °F 87% 29.83 in 3.0 mi South 13.8 mph - N/A   Overcast
6:52 AM 35.1 °F 25.5 °F 33.1 °F 92% 29.86 in 3.0 mi SSE 15.0 mph - N/A   Overcast
7:36 AM 37.4 °F 28.9 °F 35.6 °F 93% 29.82 in 4.0 mi South 13.8 mph - N/A   Overcast
7:44 AM 37.4 °F 28.5 °F 35.6 °F 93% 29.81 in 4.0 mi South 15.0 mph - N/A   Overcast
7:52 AM 37.9 °F 30.5 °F 35.1 °F 89% 29.85 in 4.0 mi South 11.5 mph - N/A   Overcast
8:06 AM 37.4 °F 28.9 °F 35.6 °F 93% 29.81 in 2.5 mi South 13.8 mph - N/A   Overcast
8:52 AM 39.9 °F 31.4 °F 37.9 °F 93% 29.84 in 1.8 mi South 16.1 mph - N/A   Overcast
9:11 AM 39.2 °F 30.2 °F 37.4 °F 93% 29.80 in 0.8 mi South 17.3 mph - N/A   Overcast
9:52 AM 41.0 °F 33.1 °F 39.9 °F 96% 29.81 in 0.2 mi South 15.0 mph - N/A Fog Fog
10:52 AM 45.0 °F 38.2 °F 44.1 °F 97% 29.82 in 0.5 mi SSW 15.0 mph 20.7 mph N/A Fog Fog
11:52 AM 46.0 °F 39.9 °F 45.0 °F 96% 29.78 in 0.8 mi SSW 13.8 mph - N/A   Overcast
12:12 PM 46.4 °F 40.4 °F 44.6 °F 93% 29.74 in 1.0 mi SSW 13.8 mph - N/A   Overcast
12:30 PM 46.4 °F 40.1 °F 46.4 °F 100% 29.73 in 1.5 mi SSW 15.0 mph - N/A   Overcast
12:44 PM 48.2 °F - 46.4 °F 93% 29.74 in 2.0 mi SSW 11.5 mph - N/A   Overcast
12:52 PM 48.0 °F - 46.0 °F 93% 29.76 in 2.5 mi SW 5.8 mph - N/A   Overcast
1:02 PM 48.2 °F - 46.4 °F 93% 29.71 in 3.0 mi South 12.7 mph 18.4 mph N/A   Overcast
1:52 PM 50.0 °F - 46.9 °F 89% 29.75 in 4.0 mi SW 16.1 mph - N/A   Overcast
2:32 PM 51.8 °F - 46.4 °F 82% 29.71 in 5.0 mi SW 13.8 mph - N/A   Haze
2:48 PM 53.6 °F - 46.4 °F 77% 29.72 in 5.0 mi SW 15.0 mph 23.0 mph N/A   Haze
2:52 PM 53.1 °F - 46.9 °F 80% 29.74 in 5.0 mi SW 13.8 mph 23.0 mph N/A   Haze
3:52 PM 51.1 °F - 44.1 °F 77% 29.76 in 5.0 mi SW 12.7 mph - N/A   Haze
4:52 PM 46.0 °F 43.9 °F 41.0 °F 83% 29.80 in 3.0 mi WSW 4.6 mph - N/A   Haze
5:52 PM 43.0 °F 38.2 °F 39.9 °F 89% 29.81 in 3.0 mi SW 8.1 mph - N/A   Clear
6:20 PM 41.0 °F 35.2 °F 37.4 °F 87% 29.79 in 2.5 mi WSW 9.2 mph - N/A   Clear
6:52 PM 41.0 °F 36.4 °F 39.0 °F 93% 29.83 in 2.5 mi West 6.9 mph - N/A   Clear
7:12 PM 42.8 °F 37.5 °F 41.0 °F 93% 29.80 in 3.0 mi West 9.2 mph - N/A   Clear
7:52 PM 41.0 °F 34.7 °F 39.0 °F 93% 29.84 in 3.0 mi WNW 10.4 mph - N/A   Clear
8:01 PM 39.2 °F 33.6 °F 37.4 °F 93% 29.81 in 2.5 mi NW 8.1 mph - N/A   Clear
8:34 PM 39.2 °F 34.2 °F 37.4 °F 93% 29.82 in 3.0 mi WNW 6.9 mph - N/A   Partly Cloudy
8:52 PM 39.0 °F 34.0 °F 37.0 °F 93% 29.84 in 3.0 mi WNW 6.9 mph - N/A   Clear
9:52 PM 37.0 °F 31.6 °F 34.0 °F 89% 29.85 in 5.0 mi NW 6.9 mph - N/A   Mostly Cloudy
10:52 PM 36.0 °F 28.5 °F 34.0 °F 93% 29.87 in 5.0 mi NW 10.4 mph - N/A   Partly Cloudy
11:52 PM 35.1 °F 29.3 °F 32.0 °F 89% 29.88 in 5.0 mi NW 6.9 mph - N/A   Clear